Время (UTC), дата Ветер
(°,м/с) 
Видим.   Явления Облачность Т
(°С)
Тd
(°С)
f(%) Тe
(°С)
Pmin
(гПа)
dP
(гПа)
Po
(мм)
O2
(г/м3)
Тmin Tmax R s Состояние
почвы
00 01.11.12 070 (В) >10 км    ясно 
-9.4 -12.9 76 -11  1026.1  1.1  762  319  -13         
03 01.11.12 090 (В) >10 км    ясно 
-3.6 -10.6 58 -3  1025.2  -0.7  761  312           
06 01.11.12 340 (С) >10 км    ясно 
-1 -10.7 48 1024  -0.9  761  309           
09 01.11.12 тихо ()   >10 км    ясно 
-4.9 -10.7 64 -5  1024.7  0.5  761  313    -0.1       
12 01.11.12 360 (С) >10 км    ясно 
-5.7 -11.9 62 -5  1024.7  761  314           
15 01.11.12 360 (С) >10 км    8/0 верхняя 
[Ci]
-5.3 -12.3 58 -7  1024.2  -0.5  761  314           
18 01.11.12 020 (С) >10 км    10/0 верхняя 
[Cs]
-7.5 -12.9 65 -7  1024.2  761  316           
00 02.11.12 050 (СВ) >10 км    4/0 средняя, верхняя 
[Ac lent|Cc]
-6 -9.9 74 -7  1023.6  760  314  -9.9         
03 02.11.12 320 (СЗ) >10 км    8/0 средняя, верхняя 
[Ac lent|Cc]
+1.8 -7.1 52 +1  1022.2  -1.2  759  305           
06 02.11.12 340 (С) >10 км    5/0 средняя, верхняя 
[Ac lent|Ci]
+6.5 -4.4 46 +6  1020.4  -1.6  758  299           
12 02.11.12 360 (С) >10 км    ясно 
+0.4 -6.6 59 1022.6  0.8  760  306           
15 02.11.12 250 (З) >10 км    ясно 
-2.2 -8.5 62 -2  1022.5  -0.1  760  309           
18 02.11.12 250 (З) >10 км    ясно 
-5.8 -10.6 69 -5  1023.6  0.9  760  314           
00 03.11.12 360 (С) >10 км    1/0 средняя 
[Ac lent]
-1.6 -5 78 -3  1025  1.4  761  309           
03 03.11.12 360 (С) >10 км    3/0 средняя, верхняя 
[Ac lent|Ci fib]
+5.2 -1.9 60 +5  1023.6  -1.1  761  301           
06 03.11.12 360 (С) >10 км    3/0 средняя, верхняя 
[Ac lent|Cc]
+8.9 -1.5 48 +10  1023  -0.5  760  297           
12 03.11.12 360 (С) >10 км    10/0 средняя 
[Ac As]
+2.7 -2.5 69 +3  1025.7  1.4  762  304           
15 03.11.12 050 (СВ) >10 км    1/0 средняя 
[Ac trans]
+0.2 -4.2 72 +1  1026.2  0.3  762  307           
18 03.11.12 050 (СВ) >10 км    6/0 средняя 
[Ac trans]
-1.3 -4.9 77 -2  1026.7  0.5  763  309           
00 04.11.12 360 (С) >10 км    4/0 средняя, верхняя 
[Ac lent|Ci fib]
-1.2 -3.5 84 -2  1027.7  0.7  763  309  -3.6         
03 04.11.12 020 (С) >10 км    ясно 
+5.8 -1.2 61 +7  1027  -0.5  763  301           
06 04.11.12 200 (Ю) >10 км    6/0 верхняя 
[Ci fib]
+8.3 -1 52 +8  1025.9  -1  762  298           
12 04.11.12 200 (Ю) >10 км    ясно 
-1.2 -3.2 86 -1  1025.8  762  309           
15 04.11.12 тихо ()   >10 км    ясно 
-3.6 -9.4 64 -4  1026  762  312           
18 04.11.12 360 (С) >10 км    ясно 
-2.4 -4 89 -2  1024.9  -0.9  761  310           
21 04.11.12 тихо ()   >10 км    ясно 
-4.6 -5.2 96 -5  1024.7  -0.3  761  313  -4.9         
00 05.11.12 020 (С) >10 км    10/0 средняя, верхняя 
[Ac lent|Ci fib]
-2.6 -2.9 98 -2  1024.2  -0.3  761  310  -5.5         
03 05.11.12 тихо ()   >10 км    9/0 средняя, верхняя 
[Ac As|Ci fib]
+2.2 -1.8 75 +2  1022.9  -1.1  760  304           
06 05.11.12 180 (Ю) >10 км    9/0 средняя, верхняя 
[Ac As|Ci fib]
+6.3 -1.8 56 +7  1021.2  -1.6  759  299           
12 05.11.12 360 (С) >10 км    ясно 
-1 -2.4 90 1021.2  -0.4  759  307           
15 05.11.12 050 (СВ) >10 км    ясно 
-3 -3.7 95 -3  1021.1  -0.3  758  309           
18 05.11.12 020 (С) >10 км    3/0 верхняя 
[Cc]
-3.2 -4.9 88 -4  1020.8  -0.3  758  310           
00 06.11.12 360 (С) >10 км    1/0 верхняя 
[Cs]
-2.9 -4.9 86 -2  1021.1  0.4  758  309  -4.9         
03 06.11.12 050 (СВ) >10 км    ясно 
+4 -3.2 59 +5  1020.2  -0.5  758  301           
06 06.11.12 360 (С) >10 км    ясно 
+7.4 -2.3 50 +8  1018.7  -1.4  757  297           
09 06.11.12 020 (С) >10 км    ясно 
+0.8 -4.5 68 +1  1019.6  0.6  757  305    +7.8       
12 06.11.12 360 (С) >10 км    ясно 
-0.9 -4.4 77 1019.6  757  307           
15 06.11.12 360 (С) >10 км    ясно 
-3 -4.7 88 -4  1020.4  0.6  758  309           
18 06.11.12 360 (С) >10 км    ясно 
-2.5 -5.1 82 -4  1019  -1.2  757  308           
00 07.11.12 050 (СВ) >10 км    10/0 средняя 
[Ac und]
-2.4 -5 82 -3  1018  -0.6  756  308  -4.3         
03 07.11.12 360 (С) >10 км    10/0 средняя 
[Ac As]
+3.3 -1.7 70 +3  1016.5  -1.3  755  301           
06 07.11.12 090 (В) >10 км    10/0 средняя 
[Ac As]
+5.4 -1.3 62 +5  1015.9  -0.6  755  298           
12 07.11.12 050 (СВ) >10 км    10/6 1300 м средняя 
[Sc|Ac und]
+1.6 -1.2 82 +2  1016.3  0.2  755  303           
15 07.11.12 070 (В) 10 км  слаб. дождь  10/10 200 м 
[Ns]
+1.1 -0.3 90 1016.3  755  303           
18 07.11.12 070 (В) 10 км  {дождь}  10/10 300 м 
[Sc|Ns]
+0.9 -0.8 88 +2  1016.3  0.2  755  303           
21 07.11.12 110 (В) 10 км    10/10 930 м 
[Sc]
+3 -0.8 76 +2  1016.3  755  301  +0.3    0.0    замёрзшая 
00 08.11.12 070 (В) 2000 м  снег  10/10 300 м 
[Ns]
+0.5 +0.2 98 1017.5  756  304           
09 08.11.12 090 (В) 10 км  слаб. дождь  10/10 660 м 
[Frnb|Ns]
+1.7 +0.6 92 +1  1019.5  757  303    +2.4     
18 08.11.12 050 (СВ) 4000 м  слаб. снег{дождь}  10/4 300 м средняя 
[Frnb|Ac As]
+1.2 +0.9 98 +1  1023.6  1.2  760  305           
21 08.11.12 360 (С) 4000 м  слаб. снег  10/10 300 м 
[Frnb|Ns]
+0.8 +0.5 98 +1  1025.7  762  306  +0.3      мокрый или
старый снег
50-90% 
00 09.11.12 360 (С) 10 км  в посл. час снег  10/8 300 м средняя 
[Frnb|Ac As]
+0.9 +0.6 98 +2  1027.6  1.9  763  306           
03 09.11.12 090 (В) 10 км  слаб. дождь  10/0 средняя 
[As op]
+2.8 -0.2 81 +2  1028.2  0.8  764  305           
06 09.11.12 050 (СВ) 10 км  слаб. морось{дождь}  10/5 300 м средняя 
[St|As op]
+2.8 +1 88 +2  1030.1  1.9  765  305           
09 09.11.12 360 (С) 10 км  {морось}  10/6 1110 м средняя 
[Sc|Ac lent]
+1.6 +0.8 94 +2  1030.3  765  306    +3.1  0.9     
12 09.11.12 тихо ()   10 км  {морось}  10/10 800 м кучево-дожд. 
[Cb cap]
+1 +0.2 94 +1  1031.4  1.1  766  308           
15 09.11.12 320 (СЗ) 10 км    10/6 1000 м средняя 
[Sc|Ac und]
+0.5 -0.3 94 +1  1031.5  0.1  766  308           
18 09.11.12 230 (ЮЗ) 10 км    10/0 средняя 
[Ac und]
+0.5 -0.1 96 +1  1031.1  -0.1  766  308           
00 10.11.12 250 (З) >10 км    6/0 средняя, верхняя 
[Ac lent|Cc]
-0.2 -1.1 94 1030.5  0.2  765  309  -1.6         
03 10.11.12 340 (С) >10 км    5/4 1000 м верхняя 
[Sc|Ci fib]
+4.6 -1.1 67 +4  1029.1  -1.2  765  303           
06 10.11.12 290 (З) >10 км    6/4 600 м кучево-дожд., верхняя 
[Cb cap|Ci fib]
+3.7 -1.6 68 +2  1028.4  -0.7  764  304           
12 10.11.12 250 (З) >10 км    10/10 960 м 
[Sc]
+0.6 -1.7 84 1028  764  307           
15 10.11.12 230 (ЮЗ) >10 км    10/10 930 м 
[Sc]
+0.8 -1.8 83 1027.3  -0.7  763  307           
18 10.11.12 140 (ЮВ) >10 км    10/10 870 м 
[Sc]
+0.2 -1.8 86 +1  1026.6  -0.7  763  307           
21 10.11.12 140 (ЮВ) 4000 м  слаб. снег  10/10 360 м 
[Ns]
-0.3 -0.6 98 -1  1025.3  -1.3  762  307  -0.5    0.0  <0.5  сухой снег
50-90% 
00 11.11.12 110 (В) >10 км  {снег}  10/10 300 м верхняя 
[St|Ac trans|Cs]
+0.1 -1 92 -1  1024.7  -0.5  761  307           
03 11.11.12 110 (В) >10 км    10/10 1000 м 
[Sc]
+1.2 -1.7 81 1023.3  -1.4  760  305           
06 11.11.12 110 (В) >10 км    10/10 1000 м 
[Sc]
+2.2 -2.1 73 1020.1  -3  758  303           
12 11.11.12 090 (В) >10 км    10/0 средняя 
[Ac und]
+1.8 -2.6 73 1017.9  -1.6  756  303           
15 11.11.12 090 (В) >10 км    10/0 средняя 
[Ac und]
+1.2 -2.6 76 1015.3  -2.6  754  303           
18 11.11.12 090 (В) 4{10}  >10 км    8/0 средняя 
[Ac lent]
+1.4 -4.1 67 -1  1012.3  -2.9  752  302           
21 11.11.12 090 (В) 5-10{11}  >10 км    10/0 средняя 
[Ac As]
+1.3 -3.9 68 -1  1010.2  -2.1  750  301  +1         
00 12.11.12 090 (В) 4-12{12}  2000 м  снег  10/0 средняя 
[As op]
-0.6 -0.9 98 -3  1008.1  -2.1  749  302  -0.8         
06 12.11.12 090 (В) 5-11{10}  10 км  в посл. час снег  10/0 средняя 
[Ac As]
+0.1 -2 86 -3  1003.8  -1.8  746  301           
12 12.11.12 070 (В) 4000 м  слаб. снег  10/0 средняя 
[As op]
+0 -0.6 96 -2  1002.8  -0.6  745  300           
15 12.11.12 070 (В) 4000 м  слаб. снег  10/0 средняя 
[As op]
-0.1 -1 94 -2  1002  -0.9  744  300           
18 12.11.12 360 (С) 10 км  в посл. час снег  10/0 средняя 
[As op]
+0 -1.4 90 -3  1001.5  -0.4  744  300           
21 12.11.12 090 (В) 3{10}  2000 м  снег  10/0 средняя 
[As op]
-0.1 -0.4 98 -2  1001.6  0.1  744  300  -0.4    18  равномерный
мокрый или
старый снег
100% 
00 13.11.12 070 (В) 2000 м  слаб. снег  10/0 средняя 
[As op]
-0.2 -0.5 98 -2  1002  0.4  744  300           
03 13.11.12 070 (В) 2000 м  слаб. снег  10/0 средняя 
[As op]
+0.1 -0.2 98 -1  1002  744  300           
06 13.11.12 070 (В) 2000 м  слаб. снег  10/0 средняя 
[As op]
+0.2 +0.2 100 -2  1002.4  0.4  745  300           
12 13.11.12 200 (Ю) 4000 м  слаб. снег  10/0 средняя 
[As op]
-0.2 -0.2 100 -1  1006  1.5  747  301           
15 13.11.12 160 (Ю) 4000 м  слаб. снег  10/0 средняя 
[As op]
+0.1 +0.1 100 -2  1007.1  1.1  748  301           
18 13.11.12 110 (В) 4000 м  слаб. снег  10/0 средняя 
[As op]
-0.2 -0.5 98 -2  1008.3  1.2  749  302           
21 13.11.12 090 (В) 10 км  {снег}  10/0 средняя 
[As trans]
+0 -1.8 88 -1  1009.9  1.6  750  302  -0.4    31  равномерный
мокрый или
старый снег
100% 
00 14.11.12 110 (В) >10 км  слаб. снег  10/0 средняя 
[Ac As]
+0.2 -1.8 86 -1  1012.4  2.5  752  303           
03 14.11.12 020 (С) >10 км  {снег}  9/0 средняя 
[Ac As]
+1.7 -2.7 73 1013.3  0.9  753  302           
06 14.11.12 360 (С) >10 км  {снег}  10/0 средняя 
[Ac As]
+2.6 -2.9 67 +2  1014.8  1.6  754  301           
12 14.11.12 тихо ()   >10 км    6/0 средняя, верхняя 
[Ac trans|Ci fib]
-3 -5.7 82 -3  1018.8  1.7  757  309           
15 14.11.12 тихо ()   >10 км  местами туман поземный  ясно 
-5.5 -6.2 95 -6  1020.4  1.6  758  312           
18 14.11.12 тихо ()   >10 км    ясно 
-7.1 -7.6 96 -7  1021.3  0.9  758  315           
00 15.11.12 230 (ЮЗ) >10 км    1/0 средняя 
[Ac lent]
-9 -9.7 95 -11  1022.6  0.8  759  317  -12.5         
03 15.11.12 230 (ЮЗ) >10 км    3/0 средняя, верхняя 
[Ac lent|Ci fib]
-2.5 -6.2 76 -4  1021.1  -1.1  758  309           
06 15.11.12 тихо ()   >10 км    9/3 1000 м средняя, верхняя 
[Sc|Ac lent|Cs]
+1.2 -4.7 65 +1  1020.1  -1  758  305           
12 15.11.12 200 (Ю) >10 км    10/0 верхняя 
[Cs]
-1.6 -4.3 82 -3  1018.8  -0.3  757  307           
15 15.11.12 180 (Ю) >10 км    10/0 средняя 
[As trans]
-2.5 -3.1 96 -4  1017.3  -1.5  756  308           
18 15.11.12 230 (ЮЗ) >10 км    5/0 средняя 
[Ac As]
-1.7 -4.8 79 -3  1016.8  -0.5  755  307           
21 15.11.12 230 (ЮЗ) >10 км    9/9 1140 м 
[Sc]
-2.5 -6.4 75 -5  1016.3  -0.5  755  308  -3.4      26  равномерный
сухой снег
100% 
00 16.11.12 230 (ЮЗ) >10 км    3/0 верхняя 
[Cc]
-4.1 -8.7 70 -5  1016.7  0.2  755  310  -4.7         
03 16.11.12 250 (З) >10 км    8/4 600 м кучево-дожд., средняя 
[Cb calv|Ac lent]
-1.4 -7.7 62 -4  1015.6  -0.9  754  306           
06 16.11.12 230 (ЮЗ) >10 км    5/3 1000 м средняя, верхняя 
[Sc|Ac lent|Ci fib]
-2.2 -8.9 60 -3  1014.2  -1.3  753  307           
09 16.11.12 270 (З) >10 км    ясно 
-7.8 -11.4 75 -9  1014.3  -0.3  753  313    -0.5       
12 16.11.12 тихо ()   >10 км    ясно 
-11.2 -12.5 90 -11  1014.3  753  318           
15 16.11.12 270 (З) >10 км    ясно 
-13.2 -13.8 95 -15  1013.8  -0.7  753  320           
18 16.11.12 270 (З) >10 км    ясно 
-14.9 -16.2 90 -17  1013.7  -0.1  753  322           
00 17.11.12 тихо ()   >10 км    8/0 верхняя 
[Cs]
-13.4 -14.7 90 -13  1013.1  0.6  752  320  -18         
03 17.11.12 тихо ()   >10 км    8/0 верхняя 
[Cc]
-6.8 -11.5 69 -7  1012  -0.7  752  312           
06 17.11.12 250 (З) >10 км    9/0 средняя, верхняя 
[Ac lent|Cc]
-5.5 -13.1 55 -7  1011.2  -0.8  751  310           
12 17.11.12 340 (С) >10 км    3/0 средняя 
[Ac lent]
-9.8 -15.1 65 -12  1013.7  1.5  753  316           
15 17.11.12 340 (С) >10 км    ясно 
-12.1 -15.6 75 -14  1014  0.3  753  319           
18 17.11.12 290 (З) >10 км    ясно 
-14.3 -17 80 -16  1014.9  0.7  756  323           
00 18.11.12 270 (З) >10 км    3/0 верхняя 
[Ci fib]
-15.3 -16.6 90 -18  1017.2  0.4  755  324  -20.4         
03 18.11.12 320 (СЗ) >10 км    1/0 верхняя 
[Ci fib]
-8.6 -15.1 59 -10  1017.4  0.4  755  316           
06 18.11.12 320 (СЗ) >10 км    1/0 верхняя 
[Ci fib]
-5.7 -15.2 47 -7  1016.8  -0.4  755  312           
12 18.11.12 тихо ()   >10 км    ясно 
-14.3 -17 80 -14  1018.8  0.9  756  323           
15 18.11.12 тихо ()   >10 км    ясно 
-17.9 -19.8 85 -18  1018.7  -0.3  756  328           
18 18.11.12 тихо ()   >10 км    ясно 
-18 -19.2 90 -18  1018.2  -0.5  756  328           
00 19.11.12 тихо ()   >10 км    10/0 средняя, верхняя 
[Ac lent|Cs]
-17.3 -18.5 91 -17  1016.2  -0.6  754  326  -21.7         
03 19.11.12 200 (Ю) >10 км    9/0 средняя, верхняя 
[Ac lent|Cc]
-11.3 -15.7 70 -13  1014.7  -1.2  753  318           
06 19.11.12 тихо ()   >10 км    9/0 средняя, верхняя 
[Ac lent|Cc]
-8.9 -15 61 -9  1013.1  -1.6  752  315           
12 19.11.12 тихо ()   >10 км    8/0 средняя, верхняя 
[Ac lent|Ci fib]
-16.6 -17.9 90 -17  1013.1  0.5  752  324           
15 19.11.12 тихо ()   >10 км    3/0 средняя 
[Ac lent]
-17.9 -19.1 90 -18  1012.9  -0.4  752  326           
18 19.11.12 160 (Ю) >10 км    ясно 
-19.1 -20.3 90 -22  1012.6  -0.3  752  327           
00 20.11.12 180 (Ю) >10 км    9/4 1000 м средняя, верхняя 
[Sc|Ac lent|Cc]
-16.4 -17.7 90 -19  1012.4  0.1  752  324  -19.9         
03 20.11.12 180 (Ю) >10 км    9/0 средняя, верхняя 
[Ac lent|Cc]
-6.8 -13.5 59 -8  1011.4  -0.6  751  312           
06 20.11.12 270 (З) >10 км    9/0 средняя, верхняя 
[Ac lent|Ci fib]
-6.5 -14.2 54 -10  1010.8  -0.6  751  311           
12 20.11.12 270 (З) >10 км    ясно 
-14.1 -18.4 70 -16  1013.3  0.7  752  321           
15 20.11.12 тихо ()   >10 км    ясно 
-14.3 -17.8 74 -14  1013.8  0.5  753  321           
18 20.11.12 тихо ()   >10 км    ясно 
-17.9 -19.8 85 -18  1014.3  0.3  753  326           
00 21.11.12 160 (Ю) >10 км    ясно 
-13.2 -15.9 80 -15  1014.4  753  320           
03 21.11.12 180 (Ю) >10 км    ясно 
-8.3 -14.7 60 -10  1013.5  -0.7  753  314           
06 21.11.12 230 (ЮЗ) >10 км    ясно 
-4.2 -12.6 52 -5  1012.3  -1  752  309           
09 21.11.12 тихо ()   >10 км    ясно 
-11.1 -16.4 65 -11  1013.1  0.6  752  317    -3.6       
12 21.11.12 230 (ЮЗ) >10 км    3/0 верхняя 
[Ci fib]
-12.3 -15 80 -14  1014  0.9  753  319           
15 21.11.12 270 (З) >10 км    ясно 
-16.7 -18 90 -19  1014.2  753  325           
18 21.11.12 тихо ()   >10 км    ясно 
-18.5 -19.1 94 -19  1014.9  0.5  753  327           
00 22.11.12 230 (ЮЗ) >10 км    3/0 верхняя 
[Cc]
-17 -18.2 90 -19  1015.8  0.5  754  325  -22.5         
03 22.11.12 230 (ЮЗ) >10 км    8/0 средняя, верхняя 
[Ac lent|Cc]
-9.6 -14.2 69 -11  1014.4  -1.1  753  316           
06 22.11.12 250 (З) >10 км    9/0 средняя, верхняя 
[Ac lent|Cc]
-5.9 -13.8 54 -9  1012.6  -1.6  752  311           
12 22.11.12 200 (Ю) >10 км    8/0 средняя, верхняя 
[Ac lent|Cc]
-12.3 -15 80 -17  1013.6  0.3  753  319           
15 22.11.12 230 (ЮЗ) >10 км    10/0 средняя, верхняя 
[Ac lent|Ci fib]
-13 -15.7 80 -15  1013.8  753  320           
18 22.11.12 340 (С) >10 км    ясно 
-15.8 -17.7 85 -21  1014.1  0.3  753  323           
00 23.11.12 270 (З) >10 км    ясно 
-15.4 -19.6 70 -18  1015.7  1.4  754  323  -18.8         
03 23.11.12 320 (СЗ) >10 км    ясно 
-11.2 -19.6 50 -15  1013.7  -1.7  753  318           
06 23.11.12 270 (З) >10 км    ясно 
-10 -18.5 50 -15  1013.5  -0.2  753  316           
09 23.11.12 270 (З) >10 км    ясно 
-13.5 -19.6 60 -16  1014.9  1.2  753  321    -9       
12 23.11.12 270 (З) >10 км    ясно 
-15.5 -19.7 70 -18  1015.8  0.8  754  324           
15 23.11.12 250 (З) >10 км    ясно 
-17.3 -20.7 75 -20  1015.8  754  326           
18 23.11.12 тихо ()   >10 км    ясно 
-20.8 -22.7 85 -21  1017.1  1.1  755  331           
00 24.11.12 тихо ()   >10 км    ясно 
-21.2 -22.4 90 -21  1017.9  0.8  755  332  -24.6         
03 24.11.12 230 (ЮЗ) >10 км    ясно 
-11.5 -17.7 60 -16  1017.3  -0.2  755  319           
06 24.11.12 230 (ЮЗ) >10 км    ясно 
-8.4 -16.7 51 -12  1017.3  755  315           
09 24.11.12 250 (З) >10 км    ясно 
-12.1 -17.3 65 -16  1018.3  756  320    -8.2       
12 24.11.12 230 (ЮЗ) >10 км    ясно 
-15.2 -17.9 80 -17  1018.6  0.1  756  324           
15 24.11.12 230 (ЮЗ) >10 км    ясно 
-18.6 -19.8 91 -21  1018.6  -0.2  756  328           
18 24.11.12 тихо ()   >10 км    ясно 
-19.6 -20.8 90 -20  1018.9  0.3  756  330           
00 25.11.12 340 (С) >10 км    10/0 верхняя 
[Cc]
-18 -19.2 90 -21  1018.1  -0.6  756  327           
03 25.11.12 020 (С) 10 км    3/0 верхняя 
[Cs]
-12.5 -16.8 71 -15  1015.7  -2  754  320           
06 25.11.12 тихо ()   >10 км    9/0 средняя, верхняя 
[As trans|Cs]
-12.3 -16.6 70 -12  1014.2  -1.4  753  319           
12 25.11.12 тихо ()   >10 км    10/0 средняя, верхняя 
[Ac lent|Cc]
-15.1 -16.4 89 -15  1012.6  -1  752  322           
15 25.11.12 тихо ()   >10 км    10/0 средняя 
[Ac As]
-13.8 -15.1 90 -14  1010.7  -1.9  750  320           
18 25.11.12 тихо ()   >10 км    10/0 средняя 
[As trans]
-13.3 -15.3 85 -13  1009.4  -1.3  749  319           
00 26.11.12 тихо ()   10 км    10/0 средняя, верхняя 
[As op|Cs]
-13.9 -14.5 95 -14  1006.8  -0.4  747  319           
03 26.11.12 тихо ()   >10 км    10/0 средняя, верхняя 
[Ac As|Ci fib]
-10.1 -13.7 75 -10  1005.1  -1.5  746  313           
06 26.11.12 110 (В) >10 км    10/0 средняя, верхняя 
[Ac lent|Ci fib]
-9.1 -13 73 -11  1004.2  -0.8  746  312           
12 26.11.12 020 (С) >10 км    ясно 
-16 -17.3 90 -18  1006.5  1.1  747  321           
15 26.11.12 320 (СЗ) >10 км    ясно 
-18.5 -21.1 80 -21  1007.7  748  325           
18 26.11.12 тихо ()   >10 км    ясно 
-17.6 -20.2 80 -18  1008.5  749  324           
00 27.11.12 320 (СЗ) >10 км    ясно 
-19.1 -21 85 -22  1011.8  1.3  751  327  -23.4         
03 27.11.12 320 (СЗ) >10 км    ясно 
-10.4 -18.8 50 -12  1012.2  0.8  752  316           
06 27.11.12 270 (З) >10 км    ясно 
-7.9 -17.9 45 -9  1012.7  0.5  752  313           
09 27.11.12 270 (З) >10 км    ясно 
-12.7 -19.9 55 -15  1014.5  1.6  753  320    -7.5       
12 27.11.12 200 (Ю) >10 км    ясно 
-15.9 -20.1 70 -18  1014.9  0.4  753  324           
15 27.11.12 тихо ()   >10 км    ясно 
-19 -22.3 75 -19  1015.1  753  328           
18 27.11.12 тихо ()   >10 км    10/0 верхняя 
[Cs]
-19.7 -22.3 80 -20  1014.2  -0.9  753  329           
00 28.11.12 360 (С) 1000 м  сильн. снег  10/0 средняя 
[As op]
-15.9 -17.8 85 -18  1008.2  -2.7  748  322           
03 28.11.12 360 (С) 2000 м  снег  10/0 средняя 
[As trans]
-13.1 -14.4 90 -15  1004.7  -3.4  746  317           
06 28.11.12 360 (С) 2000 м  снег  10/0 средняя 
[As op]
-11.9 -13.2 90 -14  1002.9  -1.6  745  315           
12 28.11.12 320 (СЗ) 10 км  в посл. час снег  10/0 средняя, верхняя 
[Ac As|Cs]
-11.1 -12.4 90 -13  1004.1  0.9  746  314           
15 28.11.12 320 (СЗ) >10 км    3/0 средняя 
[Ac trans]
-13.3 -14.6 90 -15  1005.1  0.8  746  317           
18 28.11.12 тихо ()   >10 км    5/0 средняя, верхняя 
[Ac trans|Ci fib]
-16 -17.3 90 -16  1007.3  2.1  748  321           
00 29.11.12 270 (З) >10 км    ясно 
-15.7 -19.1 75 -18  1010.9  750  322           
03 29.11.12 270 (З) >10 км    ясно 
-12.3 -18.5 60 -14  1012.2  1.5  752  319           
06 29.11.12 270 (З) >10 км    ясно 
-12.3 -19.5 55 -18  1013.7  1.5  753  319           
09 29.11.12 270 (З) >10 км    ясно 
-16.1 -22.1 60 -23  1016.4  2.4  755  325    -11.1       
12 29.11.12 250 (З) >10 км    ясно 
-18.8 -23.7 65 -24  1017.7  1.1  755  329           
15 29.11.12 230 (ЮЗ) >10 км    ясно 
-20.7 -24.7 70 -24  1018.1  0.4  756  331           
18 29.11.12 тихо ()   >10 км    ясно 
-24.9 -27.4 80 -25  1019.5  1.2  757  337           
00 30.11.12 тихо ()   >10 км    ясно 
-22.6 -24.4 85 -23  1020.2  0.6  757  334           
06 30.11.12 270 (З) >10 км    1/1 1000 м 
[Cu hum]
-13 -21.3 50 -17  1018.6  -0.3  756  321           
09 30.11.12 250 (З) >10 км    ясно 
-17.7 -23.6 59 -23  1019.9  1.1  757  328    -12.2       
12 30.11.12 270 (З) >10 км    ясно 
-19.7 -25.5 60 -25  1021.2  1.3  758  331           
15 30.11.12 тихо ()   >10 км    ясно 
-22.2 -27.1 65 -22  1021.7  0.5  758  334           
18 30.11.12 тихо ()   >10 км    ясно 
-25.3 -28.5 74 -25  1022.5  0.6  759  339           
00 01.12.12 270 (З) >10 км    ясно 
-19.6 -23.7 70 -22  1024.5  1.4  760  332           
03 01.12.12 230 (ЮЗ) >10 км    ясно 
-13.2 -21.4 50 -18  1024.3  760  324           
06 01.12.12 270 (З) >10 км    ясно 
-11.1 -20.7 45 -15  1024.1  760  321           
09 01.12.12 270 (З) >10 км    ясно 
-16.6 -23.5 55 -19  1026.1  1.7  762  328    -10.8       
12 01.12.12 270 (З) >10 км    ясно 
-20.2 -25.1 65 -23  1028  1.7  763  334           
15 01.12.12 250 (З) >10 км    ясно 
-22.6 -25.8 75 -26  1028.2  763  337           
18 01.12.12 тихо ()   >10 км    ясно 
-27.3 -29.2 85 -27  1028.6  0.4  763  344           
00 02.12.12 тихо ()   >10 км    10/0 средняя, верхняя 
[Ac lent|Cs]
-24.7 -26.5 84 -25  1027.4  762  340           
03 02.12.12 тихо ()   >10 км    10/0 средняя, верхняя 
[Ac lent|Cs]
-17.4 -22.4 65 -17  1025.3  -1.6  761  329           
06 02.12.12 070 (В) >10 км    10/0 средняя, верхняя 
[Ac lent|Cs]
-17.5 -22.5 65 -20  1023.4  -1.9  760  329           
12 02.12.12 тихо ()   >10 км    10/0 средняя 
[Ac As]
-18.3 -20.9 80 -18  1023.3  -0.6  760  330           
15 02.12.12 тихо ()   >10 км    10/0 средняя 
[As trans]
-18.5 -20.4 85 -19  1022.7  -0.6  759  330           
18 02.12.12 тихо ()   4000 м  слаб. снег  10/0 средняя, верхняя 
[As trans|Cs]
-19.6 -20.8 90 -20  1021.7  -1  758  331           
21 02.12.12 тихо ()   10 км  слаб. снег  10/0 средняя, верхняя 
[Ac trans|Cs]
-20.1 -21.3 90 -20  1020.7  -1  758  331  -22.3    0.0  24  равномерный
сухой снег
100% 
00 03.12.12 340 (С) 2000 м  снег  10/0 средняя 
[As trans]
-19 -20.2 90 -22  1020.6  -0.1  758  330           
03 03.12.12 360 (С) 10 км  {снег}  4/0 средняя, верхняя 
[Ac lent|Cc]
-15.5 -18.9 75 -18  1019.2  -1.2  757  325           
06 03.12.12 360 (С) 4000 м  слаб. снег  10/0 средняя 
[Ac As]
-14.6 -18.9 70 -17  1017.7  -1.5  755  323           
12 03.12.12 360 (С) 10 км  {снег}  10/0 средняя 
[Ac As]
-14.2 -16.9 80 -16  1015.2  -2.1  754  322           
15 03.12.12 360 (С) 10 км    10/0 средняя 
[Ac As]
-15 -17.7 80 -17  1013.3  -1.9  752  322           
18 03.12.12 340 (С) 10 км    10/0 средняя 
[As trans]
-15.4 -18.1 79 -20  1010.9  -2.4  750  322           
00 04.12.12 020 (С) >10 км    10/0 средняя 
[As op]
-7.1 -10.9 74 -12  1004.3  -3.4  746  310           
09 04.12.12 360 (С) 6{10}  1000 м  снег  10/0 средняя 
[As op]
-6.7 -7.2 96 -11  997.5  0.6  741  307    -4.8  14     
15 04.12.12 360 (С) 1000 м  снег  10/0 средняя 
[As op]
-11.5 -12.1 95 -13  1000.5  1.9  743  314           
18 04.12.12 020 (С) 4000 м  слаб. снег  10/0 средняя 
[As op]
-13.3 -13.9 95 -15  1002.6  1.9  744  317           
21 04.12.12 220 (ЮЗ) 4000 м  слаб. снег  10/0 средняя 
[As op]
-14.9 -15.5 95 -17  1004.1  1.5  745  319  -15.6    61  равномерный
сухой снег
100% 
03 05.12.12 180 (Ю) >10 км  в посл. час снег  9/0 средняя, верхняя 
[Ac trans|Cs]
-14.8 -17.5 80 -17  1006.4  0.6  747  320           
06 05.12.12 250 (З) >10 км  {снег}  9/0 средняя, верхняя 
[Ac lent|Cs]
-13.8 -18.1 70 -16  1006  -0.4  747  318           
12 05.12.12 250 (З) >10 км    ясно 
-18.8 -22.9 70 -24  1007.9  748  325           
15 05.12.12 250 (З) >10 км    ясно 
-20.7 -24.7 70 -24  1009.8  1.9  749  328           
18 05.12.12 180 (Ю) >10 км    ясно 
-25.7 -28.1 80 -29  1010.3  0.3  750  335           
00 06.12.12 тихо ()   >10 км    1/0 верхняя 
[Ci fib]
-32.3 -34.6 80 -32  1013.7  0.5  752  346  -33.7         
03 06.12.12 тихо ()   >10 км    6/0 верхняя 
[Ci]
-20 -24.9 65 -20  1014.9  1.6  753  329           
06 06.12.12 180 (Ю) >10 км    10/0 средняя 
[As trans]
-20 -24.9 65 -23  1016.5  1.5  754  330           
12 06.12.12 тихо ()   >10 км    10/0 средняя, верхняя 
[As trans|Cs]
-22.9 -25.5 79 -23  1017.6  755  334           
15 06.12.12 180 (Ю) >10 км    10/0 средняя 
[As trans]
-21.4 -24.7 75 -24  1017  -0.4  755  332           
18 06.12.12 тихо ()   4000 м  слаб. снег  10/0 средняя 
[As op]
-21.1 -23.6 80 -21  1015.6  -1.4  754  331           
21 06.12.12 200 (Ю) 4000 м  слаб. снег  10/0 средняя 
[As op]
-19.1 -21 85 -22  1014.4  -1.1  753  328  -25.1    0.3  51  равномерный
сухой снег
100% 
00 07.12.12 180 (Ю) 4000 м  слаб. снег  10/0 средняя 
[As op]
-19.3 -21.2 85 -22  1013.2  -1.2  752  328           
03 07.12.12 180 (Ю) 2000 м  слаб. снег  10/0 средняя 
[As trans]
-16.8 -19.4 80 -19  1011.2  -1.8  751  324           
06 07.12.12 230 (ЮЗ) 2000 м  слаб. снег  10/0 средняя 
[As op]
-15.9 -17.8 85 -20  1010.6  -0.6  750  322           
12 07.12.12 250 (З) 10 км  {снег}  10/0 средняя, верхняя 
[As op|Cs]
-20.2 -22.8 80 -23  1007.4  -2.6  748  327           
15 07.12.12 230 (ЮЗ) 4000 м  слаб. снег  10/0 средняя 
[As op]
-20.8 -23.3 80 -24  1004.9  -2.4  746  327           
18 07.12.12 тихо ()   4000 м  слаб. снег  10/0 средняя 
[As op]
-20 -21.9 85 -20  1004.8  -0.1  746  326           
21 07.12.12 тихо ()   4000 м  слаб. снег  10/0 средняя 
[As trans]
-18.8 -20.7 85 -19  1006.4  1.5  747  325  -21.4    54  равномерный
сухой снег
100% 
00 08.12.12 020 (С) 10 км  в посл. час снег  9/0 средняя, верхняя 
[Ac lent|Cc]
-18.8 -20.7 85 -21  1007.6  1.2  748  325           
03 08.12.12 050 (СВ) 10 км    3/1 1000 м средняя, верхняя 
[Cu hum|Ac lent|Cc]
-17.8 -20.4 80 -23  1008.6  749  324           
06 08.12.12 070 (В) 4000 м  слаб. снег  10/0 средняя, верхняя 
[Ac As|Cs]
-17.6 -21 75 -20  1010  1.4  750  324           
12 08.12.12 050 (СВ) 4000 м  слаб. снег  10/0 средняя, верхняя 
[As op|Cs]
-20.6 -22.5 85 -23  1013.3  1.5  752  329           
15 08.12.12 020 (С) 4000 м  слаб. снег  10/0 средняя, верхняя 
[As op|Cs]
-23.1 -25.7 79 -26  1015  1.5  753  333           
18 08.12.12 тихо ()   4000 м  слаб. снег  10/0 средняя 
[As trans]
-23.5 -25.4 85 -24  1015.9  0.8  754  334           
21 08.12.12 360 (С) 4000 м  слаб. снег  10/0 средняя 
[As trans]
-21.7 -23.5 85 -25  1016.9  1.2  755  332  -25.8    0.4  49  равномерный
сухой снег
100% 
00 09.12.12 тихо ()   2000 м  снег  10/0 средняя 
[As trans]
-21.9 -23.8 85 -22  1017.5  0.6  755  333           
03 09.12.12 360 (С) 4000 м  слаб. снег  10/0 средняя 
[As trans]
-17 -19.6 80 -22  1016.5  -0.8  755  326           
06 09.12.12 360 (С) 4000 м  слаб. снег  10/0 средняя 
[As trans]
-15.8 -18.5 80 -18  1016.6  0.1  755  324           
12 09.12.12 тихо ()   >10 км  {снег}  8/0 средняя 
[Ac lent]
-20.9 -22.8 84 -21  1018.3  0.6  756  331           
15 09.12.12 тихо ()   >10 км    10/0 средняя 
[As trans]
-20.8 -22.7 85 -21  1019.1  0.8  756  332           
18 09.12.12 тихо ()   >10 км    10/0 средняя 
[Ac As]
-16.9 -18.8 85 -17  1019.4  0.5  757  327           
Время (UTC), дата Ветер
(°,м/с) 
Видим.   Явления Облачность Т
(°С)
Тd
(°С)
f(%) Тe
(°С)
Pmin
(гПа)
dP
(гПа)
Po
(мм)
O2
(г/м3)
Тmin Tmax R s Состояние
почвы